Weather History for Thessaloniki, Greece

Change the Weather History Date:

Friday, August 16, 2013

  Actual Average Record
Temperature  
Mean Temperature 82 °F -  
Max Temperature 93 °F 84 °F 98 °F (2003)
Min Temperature 71 °F 62 °F 65 °F (2012)
Cooling Degree Days 17    
Growing Degree Days 32 (Base 50)    
Moisture  
Dew Point 59 °F    
Average Humidity 45    
Maximum Humidity 57    
Minimum Humidity 29    
Precipitation  
Precipitation 0.04 in 0.03 in - ()
Sea Level Pressure  
Sea Level Pressure 29.95 in    
Wind  
Wind Speed 4 mph ()    
Max Wind Speed 16 mph    
Max Gust Speed -    
Visibility 6.2 miles    
Events      
Averages and records for this station are not official NWS values.
T = Trace of Precipitation, MM = Missing Value Source: Averaged Metar Reports

Daily Weather History Graph

Daily Weather History Graph

Search for Another Location

Airport:

Trip Planner

Search our weather history database for the weather conditions in past years. The results will help you decide how hot, cold, wet, or windy it might be!

Date:

Astronomy

Aug. 16, 2013 Rise Set
Actual Time 6:39 AM EEST 8:24 PM EEST
Civil Twilight 6:10 AM EEST 8:53 PM EEST
Nautical Twilight 5:35 AM EEST 9:28 PM EEST
Astronomical Twilight 4:57 AM EEST 10:06 PM EEST
Moon 4:24 PM EEST (8/16) 1:24 AM EEST (8/16)
Length of Visible Light 14h 42m
Length of Day
13h 44m
Waxing Gibbous, 71% of the Moon is Illuminated
Aug 16
Waxing Gibbous
Aug 21
Full
Aug 28
Last Quarter
Sep 5
New
Sep 12
First Quarter

Hourly Weather History & Observations

Time (EEST) Temp. Heat Index Dew Point Humidity Pressure Visibility Wind Dir Wind Speed Gust Speed Precip Events Conditions
12:20 AM 78.8 °F - 50.0 °F 36% 29.95 in 6.2 mi Calm Calm - N/A   Scattered Clouds
12:50 AM 77.0 °F - 50.0 °F 39% 29.95 in 6.2 mi Calm Calm - N/A   Scattered Clouds
1:20 AM 77.0 °F - 50.0 °F 39% 29.95 in 6.2 mi Calm Calm - N/A   Scattered Clouds
1:50 AM 75.2 °F - 51.8 °F 44% 29.95 in - Calm Calm - N/A   Clear
2:20 AM 75.2 °F - 51.8 °F 44% 29.95 in - Calm Calm - N/A   Clear
2:50 AM 73.4 °F - 53.6 °F 50% 29.95 in - Calm Calm - N/A   Clear
3:00 AM 73 °F - 54 °F 40% 29.97 in 6 mi Calm Calm - -  
3:20 AM 73.4 °F - 53.6 °F 50% 29.95 in - Calm Calm - N/A   Clear
3:50 AM 73.4 °F - 53.6 °F 50% 29.95 in - Calm Calm - N/A   Clear
4:50 AM 71.6 °F - 53.6 °F 53% 29.95 in - Calm Calm - N/A   Clear
5:20 AM 71.6 °F - 53.6 °F 53% 29.95 in - ESE 6.9 mph - N/A   Clear
5:50 AM 71.6 °F - 53.6 °F 53% 29.95 in - ESE 5.8 mph - N/A   Clear
6:50 AM 75.2 °F - 57.2 °F 53% 29.98 in 6.2 mi Calm Calm - N/A   Scattered Clouds
7:20 AM 77.0 °F - 57.2 °F 50% 29.98 in 6.2 mi Calm Calm - N/A   Scattered Clouds
7:50 AM 77.0 °F - 57.2 °F 50% 29.98 in 6.2 mi Calm Calm - N/A   Scattered Clouds
8:20 AM 80.6 °F 80.5 °F 55.4 °F 42% 29.98 in 6.2 mi Calm Calm - N/A   Mostly Cloudy
8:50 AM 82.4 °F 82.5 °F 59.0 °F 45% 29.98 in 6.2 mi NNW 6.9 mph - N/A   Mostly Cloudy
9:00 AM 82 °F - 59 °F 36% 30.00 in 6 mi NNW 6.9 mph - -   Scattered Clouds
9:20 AM 80.6 °F 81.5 °F 60.8 °F 51% 29.98 in 6.2 mi NW 11.5 mph - N/A   Mostly Cloudy
9:50 AM 80.6 °F 81.5 °F 60.8 °F 51% 29.98 in 6.2 mi NW 12.7 mph - N/A   Mostly Cloudy
10:20 AM 82.4 °F 82.9 °F 60.8 °F 48% 29.98 in 6.2 mi NW 12.7 mph - N/A   Mostly Cloudy
10:50 AM 84.2 °F 83.8 °F 59.0 °F 42% 29.98 in 6.2 mi NW 12.7 mph - N/A   Mostly Cloudy
11:50 AM 86.0 °F 86.6 °F 62.6 °F 45% 29.98 in 6.2 mi West 8.1 mph - N/A   Mostly Cloudy
12:20 PM 86.0 °F 86.6 °F 62.6 °F 45% 29.98 in 6.2 mi West 10.4 mph - N/A   Mostly Cloudy
12:50 PM 87.8 °F 88.5 °F 62.6 °F 43% 29.95 in 6.2 mi West 11.5 mph - N/A   Mostly Cloudy
1:20 PM 91.4 °F 92.1 °F 62.6 °F 38% 29.95 in 6.2 mi West 11.5 mph - N/A   Mostly Cloudy
1:50 PM 89.6 °F 90.1 °F 62.6 °F 40% 29.95 in 6.2 mi West 12.7 mph - N/A   Scattered Clouds
2:20 PM 91.4 °F 92.1 °F 62.6 °F 38% 29.92 in 6.2 mi West 12.7 mph - N/A   Scattered Clouds
2:50 PM 91.4 °F 92.1 °F 62.6 °F 38% 29.92 in 6.2 mi West 10.4 mph - N/A   Scattered Clouds
3:00 PM 91 °F - 63 °F 29% 29.93 in 6 mi West 10.4 mph - -   Partly Cloudy
3:20 PM 91.4 °F 93.2 °F 64.4 °F 41% 29.92 in 6.2 mi West 10.4 mph - N/A   Scattered Clouds
3:50 PM 91.4 °F 90.7 °F 59.0 °F 34% 29.89 in 6.2 mi West 9.2 mph - N/A   Scattered Clouds
4:20 PM 93.2 °F 91.9 °F 57.2 °F 30% 29.89 in 6.2 mi West 9.2 mph - N/A   Scattered Clouds
4:50 PM 93.2 °F 91.9 °F 57.2 °F 30% 29.89 in 6.2 mi West 8.1 mph - N/A   Partly Cloudy
5:20 PM 93.2 °F 91.9 °F 57.2 °F 30% 29.89 in 6.2 mi West 8.1 mph - N/A   Partly Cloudy
5:50 PM 91.4 °F 89.9 °F 57.2 °F 31% 29.89 in 6.2 mi West 9.2 mph - N/A   Scattered Clouds
6:20 PM 87.8 °F 87.6 °F 60.8 °F 40% 29.89 in 6.2 mi NW 15.0 mph - N/A   Scattered Clouds
6:50 PM 84.2 °F 84.4 °F 60.8 °F 45% 29.92 in 6.2 mi WNW 11.5 mph - N/A   Scattered Clouds
7:20 PM 84.2 °F 85.0 °F 62.6 °F 48% 29.92 in 6.2 mi West 5.8 mph - N/A   Mostly Cloudy
7:50 PM 82.4 °F 82.9 °F 60.8 °F 48% 29.92 in 6.2 mi WSW 8.1 mph - N/A   Mostly Cloudy
8:20 PM 80.6 °F 81.8 °F 62.6 °F 54% 29.92 in 6.2 mi SW 5.8 mph - N/A   Scattered Clouds
8:50 PM 82.4 °F 83.9 °F 64.4 °F 54% 29.92 in 6.2 mi West 11.5 mph - N/A   Scattered Clouds
9:20 PM 80.6 °F 81.8 °F 62.6 °F 54% 29.95 in 6.2 mi WNW 16.1 mph - N/A   Scattered Clouds
9:50 PM 78.8 °F - 62.6 °F 57% 29.95 in 6.2 mi NW 12.7 mph - N/A   Scattered Clouds
10:50 PM 78.8 °F - 62.6 °F 57% 29.95 in 6.2 mi NW 4.6 mph - N/A   Scattered Clouds
11:20 PM 80.6 °F 81.5 °F 60.8 °F 51% 29.95 in 6.2 mi WNW 3.5 mph - N/A   Scattered Clouds
11:50 PM 78.8 °F - 62.6 °F 57% 29.95 in 6.2 mi SSE 3.5 mph - N/A   Scattered Clouds